Other Surface Observations
Issued by NWS Tucson, AZ

Home | Current Version | Previous Version | Text Only | Print | Product List | Glossary On
Versions: 1 2 3 4 5 6 7 8 9 10 11 12 13 14 15 16 17 18 19 20 21 22 23 24 25 26 27 28 29 30 31 32 33 34 35 36 37 38 39 40 41 42 43 44 45 46 47 48 49 50
000
SXUS55 KTWC 282315
OSOTWC

WEATHER ROUNDUP FOR SOUTHEAST ARIZONA
NATIONAL WEATHER SERVICE TUCSON AZ
415 PM MST THU MAY 28 2015

AZZ504>506-514-290015-
LOCATION       SKY/WX    TMP DP  RH WIND       PRES   REMARKS
TUCSON         SUNNY     96  23   7 MISG      29.91F
DAVIS-MONTHAN  SUNNY     94  22   7 VRB3      29.89F
CHILDRENS PARK N/A       94  24   8 NW4               PIMA CO DEQ
ALVERNON/22ND  N/A      N/A N/A N/A N/A               PIMA CO DEQ
CHERRY/GLENN   N/A      N/A N/A N/A N/A               PIMA CO DEQ
TANGERINE      N/A       95 N/A N/A W6                PIMA CO DEQ
CONTL RANCH    N/A       96  28   9 NW7               PIMA CO DEQ
GRANT/1ST      N/A       96  22   7 S2                PIMA CO DEQ
CRAYCROFT/22ND N/A      N/A N/A N/A N/A               PIMA CO DEQ
GOLFLINKS/KOLB N/A      N/A N/A N/A N/A               PIMA CO DEQ
AJO/12TH       N/A       96  22   7 SW7               PIMA CO DEQ
SAGUARO EAST   N/A      N/A N/A N/A N/A               PIMA CO DEQ
FAIRGROUNDS    N/A       94 N/A N/A W7                PIMA CO DEQ
SAGUARO        N/A       98  20   6 W6G20             *SABINO CYN
SAN CARLOS     N/A       96  22   7 S6G12             *SAN CARLOS
GREEN VALLEY   N/A       95  24   8 W3                PIMA CO DEQ
HORSE CAMP CYN N/A       88  19   8 W12G22            *ARAVAIPA CYN
RINCON MTNS    N/A       76  22  13 SW3G14            *NR MANNING CAMP
$$

AZZ509>511-290015-
LOCATION       SKY/WX    TMP DP  RH WIND       PRES   REMARKS
SAFFORD        PTSUNNY   94  22   7 VRB5      29.88F
STRAY HORSE    N/A       74  12   9 SW8G24            *
TRAIL CABIN    N/A       81  11   7 W8G17             *N OF GRANVILLE
BLACK HILLS    N/A       94  21   7 NW10G24           *N OF FT THOMAS
DRY LAKE       N/A       77  21  12 W5G12             *NATANES MTNS
NOON CREEK     N/A       87  26  11 NE6G15            *PINALENO MTNS
COLUMBINE      N/A       65   7  10 S8G16             *PINALENO MTNS
GUTHRIE        N/A       81  14   8 W10G26            *SW OF GUTHRIE
$$

AZZ502-503-513-290015-
LOCATION       SKY/WX    TMP DP  RH WIND       PRES   REMARKS
NOGALES        SUNNY     91  24   9 W9G18     29.99F
SELLS          N/A       96  28   9 SW10G19           *
SASABE         N/A       93  26   9 S9G17             *ALTAR VLY
HOPKINS        N/A       81  22  11 W7G19             *SANTA RITA MTNS
CARR CYN       N/A       88  22   9 SW4G12            *W OF HEREFORD
$$

AZZ507-508-512-290015-
LOCATION       SKY/WX    TMP DP  RH WIND       PRES   REMARKS
SIERRA VISTA   SUNNY     88  15   6 S5G24     30.04F
DOUGLAS        SUNNY     90  22   8 SW13G23   29.98F
EMPIRE MTNS    N/A       88  19   8 W11G22            *LAS CIENEGAS NCA
MULESHOE RANCH N/A       89  20   8 NW6G17            *PRESERVE
HEADQUARTERS   N/A       86   7   5 W6G15             *CHIRICAHUA MTNS
$$

.............................NOTES.............................
THIS IS AN AUTOMATED COLLECTIVE WITH MINIMAL QUALITY CONTROL.
PIMA CO DEQ SITES HAVE NONSTANDARD WIND SENSOR HEIGHTS.
PIMA CO DEQ SITES DO NOT REPORT WIND GUSTS.
* INDICATES WIND SENSORS LOCATED AT 20 FEET INSTEAD OF 33 FEET.
..............................KEY..............................
SKY/WX - SKY CONDITION/WEATHER
TMP    - TEMPERATURE IN FAHRENHEIT
DP     - DEWPOINT IN FAHRENHEIT
RH     - RELATIVE HUMIDITY IN PERCENT
WIND   - DIRECTION AND SPEED IN MILES PER HOUR (MPH)
VRB    - VARIABLE WIND DIRECTION
PRES   - MEAN SEA LEVEL PRESSURE IN INCHES OF MERCURY
         F - FALLING PRESSURE   R - RISING PRESSURE
         S - STEADY PRESSURE
VSB    - VISIBILITY IN MILES
HX     - HEAT INDEX IN FAHRENHEIT
WCI    - WIND CHILL INDEX IN FAHRENHEIT
N/A    - NOT AVAILABLE
AFB    - AIR FORCE BASE
         DAVIS-MONTHAN IS DAVIS-MONTHAN AIR FORCE BASE
CYN    - CANYON
MTNS   - MOUNTAINS
NCA    - NATIONAL CONSERVATION AREA
NR     - NEAR
VLY    - VALLEY
CONTL  - CONTINENTAL
PIMA CO DEQ - PIMA COUNTY DEPT OF ENVIRONMENTAL QUALITY



USA.gov is the U.S. government's official web portal to all federal, state and local government web resources and services.